This demonstration page uses our WeatherBlox Daily Observations layout. Learn more.

38.88101, -77.10428

Hourly Observations for January 23, 2017

Temp ( °F °C ) Dew Point ( °F °C ) Humidity (%) Winds ( mph kmh ) Pressure ( in mb ) Visibility ( mi km ) Precip ( " mm )
12:14 am 00:14 Cloudy with Light Rain 50 10 49 9.4 96 96 NE 13 20 29.62 1003 4 6.43736 0 0.0254
12:27 am 00:27 Cloudy with Light Rain 50 10 49 9.4 96 96 ENE 15 24 29.59 1002 4 6.43736 0 0.0254
12:52 am 00:52 Cloudy with Light Rain 50 10 49 9.4 96 96 ENE 14 22 29.6 1002 4 6.43736 0 0.0254
1:13 am 01:13 Cloudy with Light Rain 50 10 49 9.4 96 96 ENE 14 22 29.59 1002 4 6.43736 0.01 0.254
1:39 am 01:39 Cloudy with Light Rain 50 10 49 9.4 96 96 ENE 17 28 29.59 1002 5 8.0467 0.01 0.254
1:52 am 01:52 Cloudy with Light Rain 50 10 48 8.9 93 93 ENE 21 33 29.59 1002 6 9.65604 0.01 0.254
2:52 am 02:52 Cloudy with Light Rain 49 9.4 47 8.3 93 93 ENE 18 30 29.58 1002 2.5 4.02335 0 0.0254
3:04 am 03:04 Cloudy with Mist and Fog 48 9 46 8 94 94 NE 21 33 29.59 1002 3 4.82802 0 0
3:22 am 03:22 Cloudy with Light Rain 48 9 46 8 94 94 ENE 22 35 29.56 1001 3 4.82802 0 0
3:52 am 03:52 Cloudy with Light Rain 48 8.9 47 8.3 96 96 NE 24 39 29.54 1000 3 4.82802 0.01 0.254
4:43 am 04:43 Cloudy with Light Rain 47 8.3 46 7.8 97 97 NE 20 31 29.53 1000 3 4.82802 0 0.0254
4:52 am 04:52 Cloudy with Light Rain 47 8.3 46 7.8 97 97 NE 21 33 29.53 1000 5 8.0467 0.01 0.254
5:27 am 05:27 Cloudy with Light Rain 46 8 46 8 100 100 ENE 26 43 29.53 1000 3 4.82802 0 0
5:47 am 05:47 Cloudy with Light Rain 46 8 46 8 100 100 ENE 23 37 29.5 999 3 4.82802 0.01 0.254
5:52 am 05:52 Cloudy with Light Rain 47 8.3 46 7.8 97 97 ENE 25 41 29.51 999 3 4.82802 0.01 0.254
6:52 am 06:52 Cloudy with Light Rain 47 8.3 45 7.2 93 93 ENE 22 35 29.5 999 4 6.43736 0 0.0254
7:38 am 07:38 Cloudy with Light Rain 46 8 45 7 93 93 NE 24 39 29.5 999 2.5 4.02335 0 0
7:45 am 07:45 Cloudy with Light Rain 47 8.3 45 7.2 93 93 ENE 24 39 29.5 999 1.75 2.816345 0.02 0.508
7:52 am 07:52 Cloudy with Light Rain 47 8.3 45 7.2 93 93 NE 23 37 29.5 999 1.25 2.011675 0.02 0.508
8:29 am 08:29 Cloudy with Light Rain 46 7.8 45 7.2 96 96 ENE 26 43 29.5 999 2.5 4.02335 0.01 0.254
8:52 am 08:52 Cloudy with Light Rain 47 8.3 44 6.7 90 90 ENE 28 44 29.48 998 2 3.21868 0.02 0.508
9:15 am 09:15 Cloudy with Light Rain 46 7.8 44 6.7 93 93 NE 30 48 29.47 998 1.75 2.816345 0.01 0.254
9:24 am 09:24 Cloudy with Light Rain 46 8 45 7 93 93 ENE 26 43 29.47 998 2.5 4.02335 0 0
9:52 am 09:52 Cloudy with Light Rain 46 7.8 44 6.7 93 93 ENE 32 52 29.47 998 2 3.21868 0.02 0.508
9:55 am 09:55 Cloudy with Light Rain 46 7.8 44 6.7 93 93 NE 25 41 29.47 998 1.75 2.816345 0 0.0254
10:03 am 10:03 Cloudy with Light Rain 46 8 43 6 87 87 ENE 33 54 29.47 998 2 3.21868 0 0
10:15 am 10:15 Cloudy with Light Rain 46 7.8 43 6.1 89 89 NE 30 48 29.47 998 3 4.82802 0 0.0254
10:26 am 10:26 Cloudy with Light Rain 45 7 43 6 93 93 NE 31 50 29.47 998 3 4.82802 0 0
10:52 am 10:52 Cloudy with Light Rain 45 7.2 42 5.6 90 90 NE 31 50 29.46 998 3 4.82802 0.03 0.762
10:57 am 10:57 Cloudy with Rain 45 7.2 42 5.6 90 90 NE 30 48 29.44 997 3 4.82802 0.01 0.254
11:28 am 11:28 Cloudy with Light Rain 44 6.7 42 5.6 93 93 NE 28 44 29.44 997 4 6.43736 0.02 0.508
11:49 am 11:49 Cloudy with Light Rain 45 7 41 5 87 87 NE 32 52 29.44 997 4 6.43736 0.02 0.508
11:52 am 11:52 Cloudy with Light Rain 44 6.7 41 5 89 89 NE 29 46 29.42 996 4 6.43736 0.02 0.508
12:00 pm 12:00 Cloudy with Light Rain 45 7 41 5 87 87 NE 32 52 29.41 996 4 6.43736 0 0
12:16 pm 12:16 Cloudy with Light Rain 43 6 41 5 93 93 NE 31 50 29.41 996 2 3.21868 0 0
12:20 pm 12:20 Cloudy with Light Rain 43 6 41 5 93 93 ENE 32 52 29.41 996 1.75 2.816345 0 0
12:33 pm 12:33 Cloudy with Light Rain 43 6.1 41 5 93 93 NE 28 44 29.41 996 2 3.21868 0.02 0.508
12:40 pm 12:40 Cloudy with Heavy Rain 43 6 41 5 93 93 NE 20 31 29.41 996 1.75 2.816345 0 0
12:52 pm 12:52 Cloudy with Rain 43 6.1 41 5 93 93 NE 24 39 29.41 996 2 3.21868 0.08 2.032
12:59 pm 12:59 Cloudy with Rain 43 6.1 41 5 93 93 NE 25 41 29.41 996 3 4.82802 0.02 0.508
1:20 pm 13:20 Cloudy with Heavy Rain 43 6 41 5 93 93 NE 24 39 29.41 996 2.5 4.02335 0 0
1:27 pm 13:27 Cloudy with Light Rain 43 6.1 41 5 93 93 NE 21 33 29.41 996 4 6.43736 0.1 2.54
1:38 pm 13:38 Cloudy with Heavy Rain 43 6 41 5 93 93 ENE 17 28 29.47 998 2 3.21868 0 0
1:42 pm 13:42 Cloudy with Heavy Rain 43 6 41 5 93 93 ENE 16 26 29.5 999 1.5 2.41401 0 0
1:52 pm 13:52 Cloudy with Heavy Rain 43 6.1 41 5 93 93 NE 17 28 29.47 998 1.5 2.41401 0.27 6.858
2:05 pm 14:05 Cloudy with Heavy Rain 43 6.1 41 5 93 93 NNE 14 22 29.47 998 2 3.21868 0.1 2.54
2:18 pm 14:18 Cloudy with Rain 43 6 41 5 93 93 NNE 20 31 29.47 998 4 6.43736 0 0
2:52 pm 14:52 Cloudy with Light Rain 42 5.6 40 4.4 92 92 NNE 21 33 29.46 998 3 4.82802 0.14 3.556
2:56 pm 14:56 Cloudy with Light Rain 43 6 39 4 87 87 NE 21 33 29.47 998 4 6.43736 0 0
3:36 pm 15:36 Cloudy with Light Rain 43 6 39 4 87 87 NNE 18 30 29.47 998 2.5 4.02335 0 0
3:42 pm 15:42 Cloudy with Light Rain 43 6 39 4 87 87 NNE 22 35 29.47 998 3 4.82802 0 0
3:52 pm 15:52 Cloudy with Light Rain 42 5.6 40 4.4 92 92 NNE 21 33 29.48 998 3 4.82802 0.01 0.254
3:58 pm 15:58 Cloudy with Light Rain 43 6 39 4 87 87 NNE 17 28 29.5 999 2 3.21868 0 0
4:22 pm 16:22 Cloudy with Light Rain 43 6 39 4 87 87 NNE 20 31 29.5 999 2 3.21868 0 0
4:24 pm 16:24 Cloudy with Light Rain 43 6 39 4 87 87 NNE 21 33 29.5 999 4 6.43736 0 0
4:28 pm 16:28 Cloudy with Light Rain 42 5.6 40 4.4 92 92 NNE 20 31 29.5 999 5 8.0467 0.01 0.254
4:52 pm 16:52 Cloudy with Light Drizzle 42 5.6 40 4.4 92 92 NNE 20 31 29.49 999 3 4.82802 0.01 0.254
5:00 pm 17:00 Cloudy with Light Drizzle 43 6 39 4 87 87 NNE 18 30 29.5 999 2.5 4.02335 0 0
5:02 pm 17:02 Cloudy with Light Drizzle 41 5 40 4.4 96 96 NNE 18 30 29.5 999 3 4.82802 0 0.0254
5:13 pm 17:13 Cloudy with Light Drizzle 41 5 40 4.4 96 96 NE 22 35 29.47 998 2.5 4.02335 0 0.0254
5:24 pm 17:24 Cloudy with Light Drizzle 41 5 39 4 93 93 NNE 16 26 29.5 999 3 4.82802 0 0
5:52 pm 17:52 Cloudy with Light Drizzle 41 5 39 3.9 93 93 NE 23 37 29.48 998 6 9.65604 0 0.0254
6:06 pm 18:06 Cloudy 41 5 39 4 93 93 NE 20 31 29.47 998 7 11.26538 0 0
6:52 pm 18:52 Cloudy 41 5 38 3.3 89 89 NNE 23 37 29.49 999 8 12.87472 0 0.0254
7:17 pm 19:17 Cloudy 41 5 37 3 87 87 NNE 21 33 29.5 999 10 16.0934 0 0
7:52 pm 19:52 Cloudy 41 5 38 3.3 89 89 NNE 23 37 29.48 998 10 16.0934 0 0
8:35 pm 20:35 Cloudy with Light Drizzle 40 4.4 38 3.3 93 93 NNE 22 35 29.47 998 5 8.0467 0 0.0254
8:52 pm 20:52 Cloudy 41 5 37 2.8 86 86 N 20 31 29.48 998 9 14.48406 0 0.0254
9:52 pm 21:52 Cloudy with Light Rain 40 4.4 38 3.3 93 93 N 16 26 29.47 998 6 9.65604 0 0.0254
10:01 pm 22:01 Cloudy with Light Rain 40 4.4 38 3.3 93 93 N 17 28 29.47 998 5 8.0467 0 0.0254
10:52 pm 22:52 Cloudy with Light Rain 40 4.4 38 3.3 93 93 N 17 28 29.48 998 4 6.43736 0.01 0.254
11:09 pm 23:09 Cloudy with Light Rain 39 3.9 38 3.3 96 96 N 15 24 29.47 998 4 6.43736 0 0.0254
11:22 pm 23:22 Cloudy with Light Rain 39 4 37 3 93 93 N 16 26 29.47 998 6 9.65604 0 0
11:52 pm 23:52 Cloudy 39 3.9 38 3.3 96 96 N 14 22 29.48 998 10 16.0934 0 0.0254

Powered by AerisWeather